Location: Asheville, NC
(35.6000°N, 82.5500°W)
Time: 09:15:30
(UTC-05:00)

Vanguard 2 - Pass Details

Date: 15 December 2017
Orbit: 553 x 2939 km, 32.9° (Epoch: 21 January)

Event Time Altitude Azimuth Distance (km) Brightness Sun altitude
Rises 20:58:11 0° 265° (W) 2,816 11.2 -43.7°
Enters shadow 20:59:11 - 259° (W) 2,478 10.9 -43.9°
Reaches altitude 10° 21:01:43 10° 233° (SW) 1,816 - -44.4°
Maximum altitude 21:03:22 12° 208° (SSW) 1,672 - -44.8°
Drops below altitude 10° 21:05:03 10° 183° (S) 1,840 - -45.1°
Sets 21:08:42 0° 152° (SSE) 2,898 - -45.9°
